This is the latest recevied weather packets stored in our database for station/object K8FJG-13. If no packets are shown the sender has not sent any weather packets the latest 10 day(s).
| Time | Temp. | Humidity | Pressure | Rain* | Wind** | Luminosity | Snow |
|---|---|---|---|---|---|---|---|
| 1777829622 | 15° C | 45% | 969.6 hPa | - | - | - | - |
| 1777829019 | 15° C | 44% | 969.7 hPa | - | - | - | - |
| 1777828416 | 15° C | 44% | 969.8 hPa | - | - | - | - |
| 1777827813 | 14.44° C | 43% | 969.9 hPa | - | - | - | - |
| 1777827210 | 14.44° C | 45% | 969.9 hPa | - | - | - | - |
| 1777826606 | 14.44° C | 45% | 970.1 hPa | - | - | - | - |
| 1777826003 | 14.44° C | 44% | 970.1 hPa | - | - | - | - |
| 1777825400 | 14.44° C | 46% | 970.3 hPa | - | - | - | - |
| 1777824797 | 13.89° C | 45% | 970.4 hPa | - | - | - | - |
| 1777824194 | 13.33° C | 45% | 970.5 hPa | - | - | - | - |
| 1777823591 | 13.33° C | 46% | 970.5 hPa | - | - | - | - |
| 1777822987 | 12.78° C | 48% | 970.7 hPa | - | - | - | - |
| 1777822384 | 12.78° C | 47% | 970.7 hPa | - | - | - | - |
| 1777821781 | 12.78° C | 45% | 970.7 hPa | - | - | - | - |
| 1777821178 | 12.22° C | 47% | 970.8 hPa | - | - | - | - |
| 1777820575 | 11.67° C | 48% | 970.8 hPa | - | - | - | - |
| 1777819972 | 11.67° C | 47% | 970.8 hPa | - | - | - | - |
| 1777819369 | 11.11° C | 46% | 970.7 hPa | - | - | - | - |
| 1777818766 | 11.11° C | 48% | 970.8 hPa | - | - | - | - |
| 1777818163 | 10.56° C | 48% | 971 hPa | - | - | - | - |
| 1777817560 | 10° C | 48% | 971.1 hPa | - | - | - | - |
| 1777816957 | 9.44° C | 51% | 971.1 hPa | - | - | - | - |
| 1777816353 | 9.44° C | 50% | 971.3 hPa | - | - | - | - |
| 1777815750 | 8.89° C | 51% | 971.3 hPa | - | - | - | - |
| 1777815147 | 8.33° C | 53% | 971.4 hPa | - | - | - | - |
* Rain since midnight (hover to see other rain measurements)
** Current wind speed in m/s (hover to see current wind gust speed)